Other Public Products
Issued by NWS Grand Forks, ND

Home | Current Version | Previous Version | Text Only | Print | Product List | Glossary Off
Versions: 1 2 3 4 5 6 7 8 9 10 11 12 13 14 15 16 17 18 19 20 21 22 23 24 25 26 27 28 29 30 31 32 33 34 35 36 37 38 39 40 41 42 43 44 45 46 47 48 49 50

000
FPUS83 KFGF 032310
OPUFGF
PRAIRIE TO PINES WEATHER ROUNDUP
NATIONAL WEATHER SERVICE EASTERN NORTH DAKOTA/GRAND FORKS ND
600 PM CDT MON AUG 03 2015

 **SATELLITE DATA USED TO AUGMENT SKY COVER AT AUTOMATED STATIONS**
 *****  WEATHER ACROSS EASTERN NORTH DAKOTA  *****

CITY           SKY/WX    TMP DP  RH WIND       PRES   REMARKS
GRAND FORKS    MOSUNNY   78  45  30 N14       29.91S
GRAND FORKS AF SUNNY     77  49  37 N12       29.92F
GRAND CITY NWS   N/A     79 N/A N/A N9          N/A
BUXTON         NOT AVBL
DEVILS LAKE    SUNNY     77  39  25 NW14      29.94F
FARGO          SUNNY     79  46  31 NW10      29.92S
WAHPETON ARPT  CLEAR     77  41  27 N14       29.94S
$$

 *****  WEATHER ACROSS CENTRAL AND WESTERN NORTH DAKOTA  *****

CITY           SKY/WX    TMP DP  RH WIND       PRES   REMARKS
JAMESTOWN      SUNNY     77  44  30 N7        29.95F
BISMARCK       SUNNY     81  48  31 CALM      29.96F
MINOT          SUNNY     79  44  28 NW8G16    29.96F
MINOT AFB      SUNNY     82  45  27 NW7       29.95F
GARRISON         N/A     79  50  36 VRB5      29.97F
WILLISTON      SUNNY     85  41  21 MISG      29.95F
DICKINSON      MOSUNNY   82  49  31 E7        29.96F
HETTINGER      SUNNY     84  49  29 E6        29.98F
$$

 *****  OTHER OBSERVATIONS NORTHEAST NORTH DAKOTA  *****

CITY           SKY/WX    TMP DP  RH WIND       PRES   REMARKS
WALHALLA       NOT AVBL
LANGDON        FAIR      77  45  31 NW14      29.94F
CAVALIER       NOT AVBL
GRAFTON        FAIR      77  48  36 NW10G16   29.91F
CANDO          NOT AVBL
FORT TOTTEN      N/A     78  46  31 NW3       29.95S
ROLLA          NOT AVBL
RUGBY          NOT AVBL
 ***** THE ABOVE OBSERVATIONS ARE NON NWS ARE NOT QUALITY
        CONTROLLED AND MAY MIS-REPORT RAIN FOR SNOW...
$$

 *****  OTHER OBSERVATIONS SOUTHEAST NORTH DAKOTA *****

CITY           SKY/WX    TMP DP  RH WIND       PRES   REMARKS
COOPERSTOWN    NOT AVBL
VALLEY CITY    FAIR      77  48  36 N10G16    29.96S
OAKES          NOT AVBL
GWINNER        FAIR      79  48  34 NW12      29.96S
SHEYENNE NWR     N/A     79  47  31 N8        29.95S
BUFFALO        NOT AVBL
WYNDMERE         N/A     79  46  31 N9          N/A
 ***** THE ABOVE OBSERVATIONS ARE NON NWS ARE NOT QUALITY
       CONTROLLED AND MAY MIS-REPORT RAIN FOR SNOW...
$$

  *****  WEATHER ACROSS NORTHERN MINNESOTA  *****

CITY           SKY/WX    TMP DP  RH WIND       PRES   REMARKS
FLAG ISLAND    MOSUNNY   68  52  56 NW15      29.86F
WARROAD        MOSUNNY   70  54  56 W8        29.89S
ROSEAU         CLOUDY    70  54  56 NW10      29.90S
HALLOCK        SUNNY     75  43  31 NW14      29.90S
THF RVR FALLS  PTSUNNY   73  46  38 NW15G25   29.92F
HALSTAD        NOT AVBL
FOSSTON        MOSUNNY   75  45  33 NW15G23   29.93F
BAUDETTE       PTSUNNY   69  52  54 NW13      29.88F
WASKISH        MOSUNNY   70  54  56 W10       29.90S
CROOKSTON      SUNNY     75  48  38 N13       29.92F
$$
  *****  WEATHER ACROSS CENTRAL AND WEST MINNESOTA  *****

CITY           SKY/WX    TMP DP  RH WIND       PRES   REMARKS
BEMIDJI        MOSUNNY   72  49  44 NW14G22   29.92R
PARK RAPIDS    MOSUNNY   72  49  44 NW15G23   29.92R
WADENA         MOSUNNY   73  52  46 NW12      29.92S
DETROIT LAKES  SUNNY     73  46  38 NW14G21   29.95S
MOORHEAD       SUNNY     75  48  38 NW10      29.93S
FERGUS FALLS   SUNNY     75  48  38 N14       29.92S
ELBOW LAKE     FAIR      75  49  39 NW13      29.93S
MORRIS MN      SUNNY     77  50  38 NW14      29.93S
STAPLES        MOSUNNY   73  48  40 NW13      29.91S
WHEATON        SUNNY     75  50  41 NW6       29.96R
$$
  *****  WEATHER ELSEWHERE ACROSS MINNESOTA  *****

CITY           SKY/WX    TMP DP  RH WIND       PRES   REMARKS
DULUTH         PTSUNNY   69  53  56 NW13G22   29.86S
INTRNTL FALLS  CLOUDY    62  53  72 NW17G23   29.87R
ELY            CLOUDY    59  57  94 W6        29.86R
CLOQUET        PTSUNNY   70  52  52 NW13G18   29.87S
BRAINERD       CLOUDY    73  50  44 NW10      29.90S
HIBBING        CLOUDY    67  52  58 NW16      29.88R
ALEXANDRIA     SUNNY     76  46  34 NW15G22   29.95S
SAINT CLOUD    PTSUNNY   78  51  38 NW12      29.89F
MINNEAPOLIS    MOSUNNY   77  49  37 W9        29.89S
$$

  *****  WEATHER ACROSS SOUTH DAKOTA  *****

CITY           SKY/WX    TMP DP  RH WIND       PRES   REMARKS
SIOUX FALLS    MOSUNNY   82  58  43 CALM      29.95F
BROOKINGS      SUNNY     79  54  41 NW7       29.98S
WATERTOWN      SUNNY     78  53  41 N12       29.97S
HURON          SUNNY     82  54  37 N5        29.94F
SISSETON         N/A     78  49  35 N14       29.93F
ABERDEEN       SUNNY     82  50  32 N8        29.95F
MITCHELL       SUNNY     84  61  45 NW6       29.94F
PIERRE         SUNNY     86  53  32 VRB7      29.93F
MOBRIDGE       SUNNY     86  54  33 NW6       29.93F
RAPID CITY     PTSUNNY   81  61  50 SE10      29.95F
$$

  *****  SOME WEATHER IN NEARBY STATES *****

CITY           SKY/WX    TMP DP  RH WIND       PRES   REMARKS
GLASGOW MT     SUNNY     87  46  24 E12G22    29.90F
GREAT FALLS MT SUNNY     95  44  17 NE9       29.82F HX  91
CHEYENNE WY    CLOUDY    80  39  23 S16       30.12S
SCOTTSBLUFF NE PTSUNNY   88  63  43 E12       29.94F
OMAHA NE       PTSUNNY   82  62  50 N6        29.94F
DES MOINES IA  MOSUNNY   82  55  39 N9        29.93S
DAVENPORT IA   SUNNY     79  55  43 W9        29.90F
CHICAGO IL     MOSUNNY   79  49  34 W14       29.85S
EAU CLAIRE WI  CLOUDY    75  49  39 W13       29.87S
LA CROSSE WI   MOSUNNY   79  51  37 NW13      29.87S
$$

  *****  SOME NATIONAL WEATHER *****

CITY           SKY/WX    TMP DP  RH WIND       PRES   REMARKS
LA GUARDIA NY  PTSUNNY   86  66  51 S7        29.76S
RALEIGH NC     MOSUNNY   90  65  43 S7        29.89R HX  92
ATLANTA GA     PTSUNNY   85  64  49 S13G24    29.92R
NEW ORLEANS LA PTSUNNY   88  72  58 SW10      29.90F HX  94
OKLAHOMA CITY  PTSUNNY   84  68  58 SE7       29.93S
ALBUQUERQUE NM MOSUNNY   88  43  20 NW9G25    30.09F
SALT LAKE CITY LGT RAIN  66  58  75 E3        30.13F
LOS ANGELES CA MOSUNNY   75  65  70 W16       29.88F
BOISE ID       CLOUDY    90  45  21 CALM      29.88F
SEATTLE WA     PTSUNNY   80  54  40 VRB7      29.91F
$$

*** WEATHER ACROSS MANITOBA...SASKATCHEWAN AND ONTARIO ***
                ***ONTARIO***

CITY           SKY/WX    TMP DP  RH WIND       PRES   REMARKS
GERALDTON      NOT AVBL
THUNDER BAY    LGT RAIN  66  57  72 N9        29.76R
SIOUX LOOKOUT  CLOUDY    61  52  72 NW9       29.82R
TORONTO        PTSUNNY   75  52  43 W14       29.74R
BIG TROUT LK   CLOUDY    50  50 100 N8        29.79S FOG
PICKLE LAKE    CLOUDY    54  46  76 N6        29.79R
DRYDEN         LGT RAIN  61  54  77 NW8       29.85R
KENORA         PTSUNNY   59  55  88 N6        29.88R
$$
                *** MANITOBA***

CITY           SKY/WX    TMP DP  RH WIND       PRES   REMARKS
BRANDON        MOSUNNY   77  46  33 N15G21    29.94S
DAUPHIN        SUNNY     73  54  49 NE7       29.92R
ISLAND LAKE    CLOUDY    55  50  82 N8        29.91S
PILOT MOUND      N/A     73  46  38 NW12        N/A
THE PAS        PTSUNNY   70  50  49 NE8       29.94F
THOMPSON       LGT RAIN  59  54  82 N9        29.95S
WINNIPEG       MOSUNNY   73  48  40 NW15G24   29.90S
LYNN LAKE      CLOUDY    64  50  59 NW7       29.97S
CHURCHILL      CLOUDY    48  46  93 N10       29.95R FOG
GILLAM         CLOUDY    55  48  76 N9        29.94R
$$
                ***SASKATCHEWAN***

CITY           SKY/WX    TMP DP  RH WIND       PRES   REMARKS
ESTEVAN        MOSUNNY   79  48  34 NE5G18    29.97F
KINDERSLEY     MOSUNNY   84  52  32 SE17G25   29.88F
LLOYDMINSTER   MOSUNNY   81  50  34 SE17G25   29.90S
PRINCE ALBERT  MOSUNNY   79  54  41 VRB3      29.95F
REGINA         MOSUNNY   81  50  34 N6        29.98F


USA.gov is the U.S. government's official web portal to all federal, state and local government web resources and services.